owner,sensor,date,latitude,longitude,vertical_datum,wind_speed,wind_to_direction,wind_speed_of_gust,qcFlag 
WAVCIS,ioos:station:WAVCIS:CSI09:1,2011-11-01T00:00:00Z,29.1015,-89.9782,0.0,5.282,28.0,,'11111222,11111222,99999999' 
WAVCIS,ioos:station:WAVCIS:CSI09:1,2011-11-01T01:00:00Z,29.1015,-89.9782,0.0,3.778,32.0,,'11111222,11111222,99999999' 
WAVCIS,ioos:station:WAVCIS:CSI09:1,2011-11-01T02:00:00Z,29.1015,-89.9782,0.0,3.182,23.0,,'11111222,11111222,99999999' 
WAVCIS,ioos:station:WAVCIS:CSI09:1,2011-11-01T03:00:00Z,29.1015,-89.9782,0.0,3.908,42.0,,'11111222,11111222,99999999' 
WAVCIS,ioos:station:WAVCIS:CSI09:1,2011-11-01T04:00:00Z,29.1015,-89.9782,0.0,4.601,42.0,,'11111222,11111222,99999999' 
WAVCIS,ioos:station:WAVCIS:CSI09:1,2011-11-01T05:00:00Z,29.1015,-89.9782,0.0,5.688,50.0,,'11111222,11111222,99999999' 
WAVCIS,ioos:station:WAVCIS:CSI09:1,2011-11-01T06:00:00Z,29.1015,-89.9782,0.0,6.59,49.0,,'11111222,11111222,99999999' 
WAVCIS,ioos:station:WAVCIS:CSI09:1,2011-11-01T07:00:00Z,29.1015,-89.9782,0.0,7.46,44.0,,'11111222,11111222,99999999' 
WAVCIS,ioos:station:WAVCIS:CSI09:1,2011-11-01T08:00:00Z,29.1015,-89.9782,0.0,7.39,47.0,,'11111222,11111222,99999999' 
WAVCIS,ioos:station:WAVCIS:CSI09:1,2011-11-01T09:00:00Z,29.1015,-89.9782,0.0,7.65,43.0,,'11111222,11111222,99999999' 
WAVCIS,ioos:station:WAVCIS:CSI09:1,2011-11-01T10:00:00Z,29.1015,-89.9782,0.0,7.83,39.0,,'11111222,11111222,99999999' 
WAVCIS,ioos:station:WAVCIS:CSI09:1,2011-11-01T11:00:00Z,29.1015,-89.9782,0.0,8.79,45.0,,'11111222,11111222,99999999' 
WAVCIS,ioos:station:WAVCIS:CSI09:1,2011-11-01T12:00:00Z,29.1015,-89.9782,0.0,9.52,48.0,,'11111222,11111222,99999999' 
WAVCIS,ioos:station:WAVCIS:CSI09:1,2011-11-01T13:00:00Z,29.1015,-89.9782,0.0,9.52,44.0,,'11111222,11111222,99999999' 
WAVCIS,ioos:station:WAVCIS:CSI09:1,2011-11-01T14:00:00Z,29.1015,-89.9782,0.0,9.45,53.0,,'11111222,11111222,99999999' 
WAVCIS,ioos:station:WAVCIS:CSI09:1,2011-11-01T15:00:00Z,29.1015,-89.9782,0.0,9.74,53.0,,'11111222,11111222,99999999' 
WAVCIS,ioos:station:WAVCIS:CSI09:1,2011-11-01T16:00:00Z,29.1015,-89.9782,0.0,8.55,55.0,,'11111222,11111222,99999999' 
WAVCIS,ioos:station:WAVCIS:CSI09:1,2011-11-01T17:00:00Z,29.1015,-89.9782,0.0,7.72,53.0,,'11111222,11111222,99999999' 
WAVCIS,ioos:station:WAVCIS:CSI09:1,2011-11-01T18:00:00Z,29.1015,-89.9782,0.0,7.47,52.0,,'11111222,11111222,99999999' 
WAVCIS,ioos:station:WAVCIS:CSI09:1,2011-11-01T19:00:00Z,29.1015,-89.9782,0.0,7.09,52.0,,'11111222,11111222,99999999' 
WAVCIS,ioos:station:WAVCIS:CSI09:1,2011-11-01T20:00:00Z,29.1015,-89.9782,0.0,6.461,82.0,,'11111222,11111222,99999999' 
WAVCIS,ioos:station:WAVCIS:CSI09:1,2011-11-01T21:00:00Z,29.1015,-89.9782,0.0,7.71,80.0,,'11111222,11111222,99999999' 
WAVCIS,ioos:station:WAVCIS:CSI09:1,2011-11-01T22:00:00Z,29.1015,-89.9782,0.0,8.19,78.0,,'11111222,11111222,99999999' 
WAVCIS,ioos:station:WAVCIS:CSI09:1,2011-11-01T23:00:00Z,29.1015,-89.9782,0.0,9.31,82.0,,'11111222,11111222,99999999' 
WAVCIS,ioos:station:WAVCIS:CSI09:1,2011-11-02T00:00:00Z,29.1015,-89.9782,0.0,9.66,80.0,,'11111222,11111222,99999999' 
WAVCIS,ioos:station:WAVCIS:CSI09:1,2011-11-02T01:00:00Z,29.1015,-89.9782,0.0,9.42,78.0,,'11111222,11111222,99999999' 
WAVCIS,ioos:station:WAVCIS:CSI09:1,2011-11-02T02:00:00Z,29.1015,-89.9782,0.0,9.61,71.0,,'11111222,11111222,99999999' 
WAVCIS,ioos:station:WAVCIS:CSI09:1,2011-11-02T03:00:00Z,29.1015,-89.9782,0.0,9.1,83.0,,'11111222,11111222,99999999' 
WAVCIS,ioos:station:WAVCIS:CSI09:1,2011-11-02T04:00:00Z,29.1015,-89.9782,0.0,8.96,81.0,,'11111222,11111222,99999999' 
WAVCIS,ioos:station:WAVCIS:CSI09:1,2011-11-02T05:00:00Z,29.1015,-89.9782,0.0,9.33,78.0,,'11111222,11111222,99999999' 
WAVCIS,ioos:station:WAVCIS:CSI09:1,2011-11-02T06:00:00Z,29.1015,-89.9782,0.0,9.75,79.0,,'11111222,11111222,99999999' 
WAVCIS,ioos:station:WAVCIS:CSI09:1,2011-11-02T07:00:00Z,29.1015,-89.9782,0.0,10.25,83.0,,'11111222,11111222,99999999' 
WAVCIS,ioos:station:WAVCIS:CSI09:1,2011-11-02T08:00:00Z,29.1015,-89.9782,0.0,10.46,85.0,,'11111222,11111222,99999999' 
WAVCIS,ioos:station:WAVCIS:CSI09:1,2011-11-02T09:00:00Z,29.1015,-89.9782,0.0,9.96,83.0,,'11111222,11111222,99999999' 
WAVCIS,ioos:station:WAVCIS:CSI09:1,2011-11-02T10:00:00Z,29.1015,-89.9782,0.0,7.68,96.0,,'11111222,11111222,99999999' 
WAVCIS,ioos:station:WAVCIS:CSI09:1,2011-11-02T11:00:00Z,29.1015,-89.9782,0.0,7.78,93.0,,'11111222,11111222,99999999' 
WAVCIS,ioos:station:WAVCIS:CSI09:1,2011-11-02T12:00:00Z,29.1015,-89.9782,0.0,7.56,100.0,,'11111222,11111222,99999999' 
WAVCIS,ioos:station:WAVCIS:CSI09:1,2011-11-02T13:00:00Z,29.1015,-89.9782,0.0,7.71,94.0,,'11111222,11111222,99999999' 
WAVCIS,ioos:station:WAVCIS:CSI09:1,2011-11-02T14:00:00Z,29.1015,-89.9782,0.0,7.71,94.0,,'11111222,11111222,99999999' 
WAVCIS,ioos:station:WAVCIS:CSI09:1,2011-11-02T15:00:00Z,29.1015,-89.9782,0.0,7.28,93.0,,'11111222,11111222,99999999' 
WAVCIS,ioos:station:WAVCIS:CSI09:1,2011-11-02T16:00:00Z,29.1015,-89.9782,0.0,7.09,87.0,,'11111222,11111222,99999999' 
WAVCIS,ioos:station:WAVCIS:CSI09:1,2011-11-02T17:00:00Z,29.1015,-89.9782,0.0,5.166,84.0,,'11111222,11111222,99999999' 
WAVCIS,ioos:station:WAVCIS:CSI09:1,2011-11-02T18:00:00Z,29.1015,-89.9782,0.0,6.156,77.0,,'11111222,11111222,99999999' 
WAVCIS,ioos:station:WAVCIS:CSI09:1,2011-11-02T19:00:00Z,29.1015,-89.9782,0.0,7.18,72.0,,'11111222,11111222,99999999' 
WAVCIS,ioos:station:WAVCIS:CSI09:1,2011-11-02T20:00:00Z,29.1015,-89.9782,0.0,6.824,67.0,,'11111222,11111222,99999999' 
WAVCIS,ioos:station:WAVCIS:CSI09:1,2011-11-02T21:00:00Z,29.1015,-89.9782,0.0,8.51,53.0,,'11111222,11111222,99999999' 
WAVCIS,ioos:station:WAVCIS:CSI09:1,2011-11-02T22:00:00Z,29.1015,-89.9782,0.0,7.87,57.0,,'11111222,11111222,99999999' 
WAVCIS,ioos:station:WAVCIS:CSI09:1,2011-11-02T23:00:00Z,29.1015,-89.9782,0.0,7.85,60.0,,'11111222,11111222,99999999' 
WAVCIS,ioos:station:WAVCIS:CSI09:1,2011-11-03T00:00:00Z,29.1015,-89.9782,0.0,8.18,70.0,,'11111222,11111222,99999999' 
WAVCIS,ioos:station:WAVCIS:CSI09:1,2011-11-03T01:00:00Z,29.1015,-89.9782,0.0,8.96,74.0,,'11111222,11111222,99999999' 
WAVCIS,ioos:station:WAVCIS:CSI09:1,2011-11-03T02:00:00Z,29.1015,-89.9782,0.0,8.73,86.0,,'11111222,11111222,99999999' 
WAVCIS,ioos:station:WAVCIS:CSI09:1,2011-11-03T03:00:00Z,29.1015,-89.9782,0.0,8.4,105.0,,'11111222,11111222,99999999' 
WAVCIS,ioos:station:WAVCIS:CSI09:1,2011-11-03T04:00:00Z,29.1015,-89.9782,0.0,8.17,115.0,,'11111222,11111222,99999999' 
WAVCIS,ioos:station:WAVCIS:CSI09:1,2011-11-03T05:00:00Z,29.1015,-89.9782,0.0,8.03,124.0,,'11111222,11111222,99999999' 
WAVCIS,ioos:station:WAVCIS:CSI09:1,2011-11-03T06:00:00Z,29.1015,-89.9782,0.0,8.81,122.0,,'11111222,11111222,99999999' 
WAVCIS,ioos:station:WAVCIS:CSI09:1,2011-11-03T07:00:00Z,29.1015,-89.9782,0.0,7.67,136.0,,'11111222,11111222,99999999' 
WAVCIS,ioos:station:WAVCIS:CSI09:1,2011-11-03T08:00:00Z,29.1015,-89.9782,0.0,6.538,162.0,,'11111222,11111222,99999999' 
WAVCIS,ioos:station:WAVCIS:CSI09:1,2011-11-03T09:00:00Z,29.1015,-89.9782,0.0,5.967,165.0,,'11111222,11111222,99999999' 
WAVCIS,ioos:station:WAVCIS:CSI09:1,2011-11-03T10:00:00Z,29.1015,-89.9782,0.0,6.488,173.0,,'11111222,11111222,99999999' 
WAVCIS,ioos:station:WAVCIS:CSI09:1,2011-11-03T11:00:00Z,29.1015,-89.9782,0.0,4.226,205.0,,'11111222,11111222,99999999' 
WAVCIS,ioos:station:WAVCIS:CSI09:1,2011-11-03T12:00:00Z,29.1015,-89.9782,0.0,6.526,248.0,,'11111222,11111222,99999999' 
WAVCIS,ioos:station:WAVCIS:CSI09:1,2011-11-03T13:00:00Z,29.1015,-89.9782,0.0,5.694,234.0,,'11111222,11111222,99999999' 
WAVCIS,ioos:station:WAVCIS:CSI09:1,2011-11-03T14:00:00Z,29.1015,-89.9782,0.0,5.891,243.0,,'11111222,11111222,99999999' 
WAVCIS,ioos:station:WAVCIS:CSI09:1,2011-11-03T15:00:00Z,29.1015,-89.9782,0.0,4.83,244.0,,'11111222,11111222,99999999' 
WAVCIS,ioos:station:WAVCIS:CSI09:1,2011-11-03T16:00:00Z,29.1015,-89.9782,0.0,4.977,242.0,,'11111222,11111222,99999999' 
WAVCIS,ioos:station:WAVCIS:CSI09:1,2011-11-03T17:00:00Z,29.1015,-89.9782,0.0,10.1,291.0,,'11111222,11111222,99999999' 
WAVCIS,ioos:station:WAVCIS:CSI09:1,2011-11-03T18:00:00Z,29.1015,-89.9782,0.0,9.86,309.0,,'11111222,11111222,99999999' 
WAVCIS,ioos:station:WAVCIS:CSI09:1,2011-11-03T19:00:00Z,29.1015,-89.9782,0.0,9.0,327.0,,'11111222,11111222,99999999' 
WAVCIS,ioos:station:WAVCIS:CSI09:1,2011-11-03T20:00:00Z,29.1015,-89.9782,0.0,9.16,326.0,,'11111222,11111222,99999999' 
WAVCIS,ioos:station:WAVCIS:CSI09:1,2011-11-03T21:00:00Z,29.1015,-89.9782,0.0,7.67,330.0,,'11111222,11111222,99999999' 
WAVCIS,ioos:station:WAVCIS:CSI09:1,2011-11-03T22:00:00Z,29.1015,-89.9782,0.0,8.89,331.0,,'11111222,11111222,99999999' 
WAVCIS,ioos:station:WAVCIS:CSI09:1,2011-11-03T23:00:00Z,29.1015,-89.9782,0.0,9.32,330.0,,'11111222,11111222,99999999' 
WAVCIS,ioos:station:WAVCIS:CSI09:1,2011-11-04T00:00:00Z,29.1015,-89.9782,0.0,10.65,327.0,,'11111222,11111222,99999999' 
WAVCIS,ioos:station:WAVCIS:CSI09:1,2011-11-04T01:00:00Z,29.1015,-89.9782,0.0,11.47,323.0,,'11111222,11111222,99999999' 
WAVCIS,ioos:station:WAVCIS:CSI09:1,2011-11-04T02:00:00Z,29.1015,-89.9782,0.0,12.74,330.0,,'11111222,11111222,99999999' 
WAVCIS,ioos:station:WAVCIS:CSI09:1,2011-11-04T03:00:00Z,29.1015,-89.9782,0.0,12.17,337.0,,'11111222,11111222,99999999' 
WAVCIS,ioos:station:WAVCIS:CSI09:1,2011-11-04T04:00:00Z,29.1015,-89.9782,0.0,11.72,334.0,,'11111222,11111222,99999999' 
WAVCIS,ioos:station:WAVCIS:CSI09:1,2011-11-04T05:00:00Z,29.1015,-89.9782,0.0,11.0,341.0,,'11111222,11111222,99999999' 
WAVCIS,ioos:station:WAVCIS:CSI09:1,2011-11-04T06:00:00Z,29.1015,-89.9782,0.0,11.92,350.0,,'11111222,11111222,99999999' 
WAVCIS,ioos:station:WAVCIS:CSI09:1,2011-11-04T07:00:00Z,29.1015,-89.9782,0.0,9.98,345.0,,'11111222,11111222,99999999' 
WAVCIS,ioos:station:WAVCIS:CSI09:1,2011-11-04T08:00:00Z,29.1015,-89.9782,0.0,9.72,347.0,,'11111222,11111222,99999999' 
WAVCIS,ioos:station:WAVCIS:CSI09:1,2011-11-04T09:00:00Z,29.1015,-89.9782,0.0,8.89,330.0,,'11111222,11111222,99999999' 
WAVCIS,ioos:station:WAVCIS:CSI09:1,2011-11-04T10:00:00Z,29.1015,-89.9782,0.0,8.58,326.0,,'11111222,11111222,99999999' 
WAVCIS,ioos:station:WAVCIS:CSI09:1,2011-11-04T11:00:00Z,29.1015,-89.9782,0.0,9.6,336.0,,'11111222,11111222,99999999' 
WAVCIS,ioos:station:WAVCIS:CSI09:1,2011-11-04T12:00:00Z,29.1015,-89.9782,0.0,9.55,339.0,,'11111222,11111222,99999999' 
WAVCIS,ioos:station:WAVCIS:CSI09:1,2011-11-04T13:00:00Z,29.1015,-89.9782,0.0,8.48,348.0,,'11111222,11111222,99999999' 
WAVCIS,ioos:station:WAVCIS:CSI09:1,2011-11-04T14:00:00Z,29.1015,-89.9782,0.0,8.3,3.0,,'11111222,11111222,99999999' 
WAVCIS,ioos:station:WAVCIS:CSI09:1,2011-11-04T15:00:00Z,29.1015,-89.9782,0.0,8.73,356.0,,'11111222,11111222,99999999' 
WAVCIS,ioos:station:WAVCIS:CSI09:1,2011-11-04T16:00:00Z,29.1015,-89.9782,0.0,9.25,8.0,,'11111222,11111222,99999999' 
WAVCIS,ioos:station:WAVCIS:CSI09:1,2011-11-04T17:00:00Z,29.1015,-89.9782,0.0,6.546,4.0,,'11111222,11111222,99999999' 
WAVCIS,ioos:station:WAVCIS:CSI09:1,2011-11-04T18:00:00Z,29.1015,-89.9782,0.0,6.212,344.0,,'11111222,11111222,99999999' 
WAVCIS,ioos:station:WAVCIS:CSI09:1,2011-11-04T19:00:00Z,29.1015,-89.9782,0.0,5.768,10.0,,'11111222,11111222,99999999' 
WAVCIS,ioos:station:WAVCIS:CSI09:1,2011-11-04T20:00:00Z,29.1015,-89.9782,0.0,4.034,358.0,,'11111222,11111222,99999999' 
WAVCIS,ioos:station:WAVCIS:CSI09:1,2011-11-04T21:00:00Z,29.1015,-89.9782,0.0,3.488,328.0,,'11111222,11111222,99999999' 
WAVCIS,ioos:station:WAVCIS:CSI09:1,2011-11-04T22:00:00Z,29.1015,-89.9782,0.0,4.931,347.0,,'11111222,11111222,99999999' 
WAVCIS,ioos:station:WAVCIS:CSI09:1,2011-11-04T23:00:00Z,29.1015,-89.9782,0.0,7.0,352.0,,'11111222,11111222,99999999' 
WAVCIS,ioos:station:WAVCIS:CSI09:1,2011-11-05T00:00:00Z,29.1015,-89.9782,0.0,8.91,3.0,,'11111222,11111222,99999999' 
WAVCIS,ioos:station:WAVCIS:CSI09:1,2011-11-05T01:00:00Z,29.1015,-89.9782,0.0,9.3,12.0,,'11111222,11111222,99999999' 
WAVCIS,ioos:station:WAVCIS:CSI09:1,2011-11-05T02:00:00Z,29.1015,-89.9782,0.0,9.84,17.0,,'11111222,11111222,99999999' 
WAVCIS,ioos:station:WAVCIS:CSI09:1,2011-11-05T03:00:00Z,29.1015,-89.9782,0.0,8.89,32.0,,'11111222,11111222,99999999' 
WAVCIS,ioos:station:WAVCIS:CSI09:1,2011-11-05T04:00:00Z,29.1015,-89.9782,0.0,10.03,25.0,,'11111222,11111222,99999999' 
WAVCIS,ioos:station:WAVCIS:CSI09:1,2011-11-05T05:00:00Z,29.1015,-89.9782,0.0,9.76,36.0,,'11111222,11111222,99999999' 
WAVCIS,ioos:station:WAVCIS:CSI09:1,2011-11-05T06:00:00Z,29.1015,-89.9782,0.0,9.11,42.0,,'11111222,11111222,99999999' 
WAVCIS,ioos:station:WAVCIS:CSI09:1,2011-11-05T07:00:00Z,29.1015,-89.9782,0.0,8.55,37.0,,'11111222,11111222,99999999' 
WAVCIS,ioos:station:WAVCIS:CSI09:1,2011-11-05T08:00:00Z,29.1015,-89.9782,0.0,7.76,52.0,,'11111222,11111222,99999999' 
WAVCIS,ioos:station:WAVCIS:CSI09:1,2011-11-05T09:00:00Z,29.1015,-89.9782,0.0,7.99,33.0,,'11111222,11111222,99999999' 
WAVCIS,ioos:station:WAVCIS:CSI09:1,2011-11-05T10:00:00Z,29.1015,-89.9782,0.0,6.798,30.0,,'11111222,11111222,99999999' 
WAVCIS,ioos:station:WAVCIS:CSI09:1,2011-11-05T11:00:00Z,29.1015,-89.9782,0.0,6.644,44.0,,'11111222,11111222,99999999' 
WAVCIS,ioos:station:WAVCIS:CSI09:1,2011-11-05T12:00:00Z,29.1015,-89.9782,0.0,7.87,28.0,,'11111222,11111222,99999999' 
WAVCIS,ioos:station:WAVCIS:CSI09:1,2011-11-05T13:00:00Z,29.1015,-89.9782,0.0,8.23,42.0,,'11111222,11111222,99999999' 
WAVCIS,ioos:station:WAVCIS:CSI09:1,2011-11-05T14:00:00Z,29.1015,-89.9782,0.0,9.46,40.0,,'11111222,11111222,99999999' 
WAVCIS,ioos:station:WAVCIS:CSI09:1,2011-11-05T15:00:00Z,29.1015,-89.9782,0.0,8.44,39.0,,'11111222,11111222,99999999' 
WAVCIS,ioos:station:WAVCIS:CSI09:1,2011-11-05T16:00:00Z,29.1015,-89.9782,0.0,7.6,33.0,,'11111222,11111222,99999999' 
WAVCIS,ioos:station:WAVCIS:CSI09:1,2011-11-05T17:00:00Z,29.1015,-89.9782,0.0,7.96,37.0,,'11111222,11111222,99999999' 
WAVCIS,ioos:station:WAVCIS:CSI09:1,2011-11-05T18:00:00Z,29.1015,-89.9782,0.0,8.29,45.0,,'11111222,11111222,99999999' 
WAVCIS,ioos:station:WAVCIS:CSI09:1,2011-11-05T19:00:00Z,29.1015,-89.9782,0.0,7.78,42.0,,'11111222,11111222,99999999' 
WAVCIS,ioos:station:WAVCIS:CSI09:1,2011-11-05T20:00:00Z,29.1015,-89.9782,0.0,8.9,36.0,,'11111222,11111222,99999999' 
WAVCIS,ioos:station:WAVCIS:CSI09:1,2011-11-05T21:00:00Z,29.1015,-89.9782,0.0,7.7,35.0,,'11111222,11111222,99999999' 
WAVCIS,ioos:station:WAVCIS:CSI09:1,2011-11-05T22:00:00Z,29.1015,-89.9782,0.0,7.24,49.0,,'11111222,11111222,99999999' 
WAVCIS,ioos:station:WAVCIS:CSI09:1,2011-11-05T23:00:00Z,29.1015,-89.9782,0.0,8.74,81.0,,'11111222,11111222,99999999' 
WAVCIS,ioos:station:WAVCIS:CSI09:1,2011-11-06T00:00:00Z,29.1015,-89.9782,0.0,9.83,86.0,,'11111222,11111222,99999999' 
WAVCIS,ioos:station:WAVCIS:CSI09:1,2011-11-06T01:00:00Z,29.1015,-89.9782,0.0,10.14,83.0,,'11111222,11111222,99999999' 
WAVCIS,ioos:station:WAVCIS:CSI09:1,2011-11-06T02:00:00Z,29.1015,-89.9782,0.0,10.73,82.0,,'11111222,11111222,99999999' 
WAVCIS,ioos:station:WAVCIS:CSI09:1,2011-11-06T03:00:00Z,29.1015,-89.9782,0.0,9.41,78.0,,'11111222,11111222,99999999' 
WAVCIS,ioos:station:WAVCIS:CSI09:1,2011-11-06T04:00:00Z,29.1015,-89.9782,0.0,9.15,81.0,,'11111222,11111222,99999999' 
WAVCIS,ioos:station:WAVCIS:CSI09:1,2011-11-06T05:00:00Z,29.1015,-89.9782,0.0,9.18,78.0,,'11111222,11111222,99999999' 
WAVCIS,ioos:station:WAVCIS:CSI09:1,2011-11-06T06:00:00Z,29.1015,-89.9782,0.0,11.94,89.0,,'11111222,11111222,99999999' 
WAVCIS,ioos:station:WAVCIS:CSI09:1,2011-11-06T07:00:00Z,29.1015,-89.9782,0.0,10.81,88.0,,'11111222,11111222,99999999' 
WAVCIS,ioos:station:WAVCIS:CSI09:1,2011-11-06T08:00:00Z,29.1015,-89.9782,0.0,10.31,92.0,,'11111222,11111222,99999999' 
WAVCIS,ioos:station:WAVCIS:CSI09:1,2011-11-06T09:00:00Z,29.1015,-89.9782,0.0,7.88,78.0,,'11111222,11111222,99999999' 
WAVCIS,ioos:station:WAVCIS:CSI09:1,2011-11-06T10:00:00Z,29.1015,-89.9782,0.0,7.74,127.0,,'11111222,11111222,99999999' 
WAVCIS,ioos:station:WAVCIS:CSI09:1,2011-11-06T11:00:00Z,29.1015,-89.9782,0.0,5.985,137.0,,'11111222,11111222,99999999' 
WAVCIS,ioos:station:WAVCIS:CSI09:1,2011-11-06T12:00:00Z,29.1015,-89.9782,0.0,5.808,135.0,,'11111222,11111222,99999999' 
WAVCIS,ioos:station:WAVCIS:CSI09:1,2011-11-06T13:00:00Z,29.1015,-89.9782,0.0,4.213,144.0,,'11111222,11111222,99999999' 
WAVCIS,ioos:station:WAVCIS:CSI09:1,2011-11-06T14:00:00Z,29.1015,-89.9782,0.0,5.746,65.0,,'11111222,11111222,99999999' 
WAVCIS,ioos:station:WAVCIS:CSI09:1,2011-11-06T15:00:00Z,29.1015,-89.9782,0.0,5.525,69.0,,'11111222,11111222,99999999' 
WAVCIS,ioos:station:WAVCIS:CSI09:1,2011-11-06T16:00:00Z,29.1015,-89.9782,0.0,5.714,56.0,,'11111222,11111222,99999999' 
WAVCIS,ioos:station:WAVCIS:CSI09:1,2011-11-06T17:00:00Z,29.1015,-89.9782,0.0,8.08,46.0,,'11111222,11111222,99999999' 
WAVCIS,ioos:station:WAVCIS:CSI09:1,2011-11-06T18:00:00Z,29.1015,-89.9782,0.0,7.97,46.0,,'11111222,11111222,99999999' 
WAVCIS,ioos:station:WAVCIS:CSI09:1,2011-11-06T19:00:00Z,29.1015,-89.9782,0.0,7.95,55.0,,'11111222,11111222,99999999' 
WAVCIS,ioos:station:WAVCIS:CSI09:1,2011-11-06T20:00:00Z,29.1015,-89.9782,0.0,9.98,55.0,,'11111222,11111222,99999999' 
WAVCIS,ioos:station:WAVCIS:CSI09:1,2011-11-06T21:00:00Z,29.1015,-89.9782,0.0,11.0,64.0,,'11111222,11111222,99999999' 
WAVCIS,ioos:station:WAVCIS:CSI09:1,2011-11-06T22:00:00Z,29.1015,-89.9782,0.0,10.4,59.0,,'11111222,11111222,99999999' 
WAVCIS,ioos:station:WAVCIS:CSI09:1,2011-11-06T23:00:00Z,29.1015,-89.9782,0.0,9.7,49.0,,'11111222,11111222,99999999' 
WAVCIS,ioos:station:WAVCIS:CSI09:1,2011-11-07T00:00:00Z,29.1015,-89.9782,0.0,6.315,61.0,,'11111222,11111222,99999999' 
WAVCIS,ioos:station:WAVCIS:CSI09:1,2011-11-07T01:00:00Z,29.1015,-89.9782,0.0,9.01,67.0,,'11111222,11111222,99999999' 
WAVCIS,ioos:station:WAVCIS:CSI09:1,2011-11-07T02:00:00Z,29.1015,-89.9782,0.0,11.56,82.0,,'11111222,11111222,99999999' 
WAVCIS,ioos:station:WAVCIS:CSI09:1,2011-11-07T03:00:00Z,29.1015,-89.9782,0.0,9.56,81.0,,'11111222,11111222,99999999' 
WAVCIS,ioos:station:WAVCIS:CSI09:1,2011-11-07T04:00:00Z,29.1015,-89.9782,0.0,8.41,92.0,,'11111222,11111222,99999999' 
WAVCIS,ioos:station:WAVCIS:CSI09:1,2011-11-07T05:00:00Z,29.1015,-89.9782,0.0,5.257,83.0,,'11111222,11111222,99999999' 
WAVCIS,ioos:station:WAVCIS:CSI09:1,2011-11-07T06:00:00Z,29.1015,-89.9782,0.0,6.987,85.0,,'11111222,11111222,99999999' 
WAVCIS,ioos:station:WAVCIS:CSI09:1,2011-11-07T07:00:00Z,29.1015,-89.9782,0.0,7.9,74.0,,'11111222,11111222,99999999' 
WAVCIS,ioos:station:WAVCIS:CSI09:1,2011-11-07T08:00:00Z,29.1015,-89.9782,0.0,8.05,79.0,,'11111222,11111222,99999999' 
WAVCIS,ioos:station:WAVCIS:CSI09:1,2011-11-07T09:00:00Z,29.1015,-89.9782,0.0,7.51,79.0,,'11111222,11111222,99999999' 
WAVCIS,ioos:station:WAVCIS:CSI09:1,2011-11-07T10:00:00Z,29.1015,-89.9782,0.0,7.18,82.0,,'11111222,11111222,99999999' 
WAVCIS,ioos:station:WAVCIS:CSI09:1,2011-11-07T11:00:00Z,29.1015,-89.9782,0.0,6.954,81.0,,'11111222,11111222,99999999' 
WAVCIS,ioos:station:WAVCIS:CSI09:1,2011-11-07T12:00:00Z,29.1015,-89.9782,0.0,7.45,82.0,,'11111222,11111222,99999999' 
WAVCIS,ioos:station:WAVCIS:CSI09:1,2011-11-07T13:00:00Z,29.1015,-89.9782,0.0,9.45,84.0,,'11111222,11111222,99999999' 
WAVCIS,ioos:station:WAVCIS:CSI09:1,2011-11-07T14:00:00Z,29.1015,-89.9782,0.0,8.73,83.0,,'11111222,11111222,99999999' 
WAVCIS,ioos:station:WAVCIS:CSI09:1,2011-11-07T15:00:00Z,29.1015,-89.9782,0.0,7.88,77.0,,'11111222,11111222,99999999' 
WAVCIS,ioos:station:WAVCIS:CSI09:1,2011-11-07T16:00:00Z,29.1015,-89.9782,0.0,8.09,81.0,,'11111222,11111222,99999999' 
WAVCIS,ioos:station:WAVCIS:CSI09:1,2011-11-07T17:00:00Z,29.1015,-89.9782,0.0,8.82,79.0,,'11111222,11111222,99999999' 
WAVCIS,ioos:station:WAVCIS:CSI09:1,2011-11-07T18:00:00Z,29.1015,-89.9782,0.0,8.47,78.0,,'11111222,11111222,99999999' 
WAVCIS,ioos:station:WAVCIS:CSI09:1,2011-11-07T19:00:00Z,29.1015,-89.9782,0.0,7.96,79.0,,'11111222,11111222,99999999' 
WAVCIS,ioos:station:WAVCIS:CSI09:1,2011-11-07T20:00:00Z,29.1015,-89.9782,0.0,7.93,80.0,,'11111222,11111222,99999999' 
WAVCIS,ioos:station:WAVCIS:CSI09:1,2011-11-07T21:00:00Z,29.1015,-89.9782,0.0,7.8,84.0,,'11111222,11111222,99999999' 
WAVCIS,ioos:station:WAVCIS:CSI09:1,2011-11-07T22:00:00Z,29.1015,-89.9782,0.0,7.97,83.0,,'11111222,11111222,99999999' 
WAVCIS,ioos:station:WAVCIS:CSI09:1,2011-11-07T23:00:00Z,29.1015,-89.9782,0.0,9.0,79.0,,'11111222,11111222,99999999' 
WAVCIS,ioos:station:WAVCIS:CSI09:1,2011-11-08T00:00:00Z,29.1015,-89.9782,0.0,8.25,77.0,,'11111222,11111222,99999999' 
WAVCIS,ioos:station:WAVCIS:CSI09:1,2011-11-08T01:00:00Z,29.1015,-89.9782,0.0,7.95,76.0,,'11111222,11111222,99999999' 
WAVCIS,ioos:station:WAVCIS:CSI09:1,2011-11-08T02:00:00Z,29.1015,-89.9782,0.0,7.94,79.0,,'11111222,11111222,99999999' 
WAVCIS,ioos:station:WAVCIS:CSI09:1,2011-11-08T03:00:00Z,29.1015,-89.9782,0.0,6.218,94.0,,'11111222,11111222,99999999' 
WAVCIS,ioos:station:WAVCIS:CSI09:1,2011-11-08T04:00:00Z,29.1015,-89.9782,0.0,8.65,86.0,,'11111222,11111222,99999999' 
WAVCIS,ioos:station:WAVCIS:CSI09:1,2011-11-08T05:00:00Z,29.1015,-89.9782,0.0,9.39,90.0,,'11111222,11111222,99999999' 
WAVCIS,ioos:station:WAVCIS:CSI09:1,2011-11-08T06:00:00Z,29.1015,-89.9782,0.0,8.52,115.0,,'11111222,11111222,99999999' 
WAVCIS,ioos:station:WAVCIS:CSI09:1,2011-11-08T07:00:00Z,29.1015,-89.9782,0.0,10.11,130.0,,'11111222,11111222,99999999' 
WAVCIS,ioos:station:WAVCIS:CSI09:1,2011-11-08T08:00:00Z,29.1015,-89.9782,0.0,9.09,130.0,,'11111222,11111222,99999999' 
WAVCIS,ioos:station:WAVCIS:CSI09:1,2011-11-08T09:00:00Z,29.1015,-89.9782,0.0,8.34,135.0,,'11111222,11111222,99999999' 
WAVCIS,ioos:station:WAVCIS:CSI09:1,2011-11-08T10:00:00Z,29.1015,-89.9782,0.0,8.94,138.0,,'11111222,11111222,99999999' 
WAVCIS,ioos:station:WAVCIS:CSI09:1,2011-11-08T11:00:00Z,29.1015,-89.9782,0.0,7.52,135.0,,'11111222,11111222,99999999' 
WAVCIS,ioos:station:WAVCIS:CSI09:1,2011-11-08T12:00:00Z,29.1015,-89.9782,0.0,7.3,138.0,,'11111222,11111222,99999999' 
WAVCIS,ioos:station:WAVCIS:CSI09:1,2011-11-08T13:00:00Z,29.1015,-89.9782,0.0,7.34,134.0,,'11111222,11111222,99999999' 
WAVCIS,ioos:station:WAVCIS:CSI09:1,2011-11-08T14:00:00Z,29.1015,-89.9782,0.0,7.37,128.0,,'11111222,11111222,99999999' 
WAVCIS,ioos:station:WAVCIS:CSI09:1,2011-11-08T15:00:00Z,29.1015,-89.9782,0.0,7.65,130.0,,'11111222,11111222,99999999' 
WAVCIS,ioos:station:WAVCIS:CSI09:1,2011-11-08T16:00:00Z,29.1015,-89.9782,0.0,7.86,132.0,,'11111222,11111222,99999999' 
WAVCIS,ioos:station:WAVCIS:CSI09:1,2011-11-08T17:00:00Z,29.1015,-89.9782,0.0,6.667,138.0,,'11111222,11111222,99999999' 
WAVCIS,ioos:station:WAVCIS:CSI09:1,2011-11-08T18:00:00Z,29.1015,-89.9782,0.0,6.722,128.0,,'11111222,11111222,99999999' 
WAVCIS,ioos:station:WAVCIS:CSI09:1,2011-11-08T19:00:00Z,29.1015,-89.9782,0.0,5.719,121.0,,'11111222,11111222,99999999' 
WAVCIS,ioos:station:WAVCIS:CSI09:1,2011-11-08T20:00:00Z,29.1015,-89.9782,0.0,6.596,119.0,,'11111222,11111222,99999999' 
WAVCIS,ioos:station:WAVCIS:CSI09:1,2011-11-08T21:00:00Z,29.1015,-89.9782,0.0,6.231,140.0,,'11111222,11111222,99999999' 
WAVCIS,ioos:station:WAVCIS:CSI09:1,2011-11-08T22:00:00Z,29.1015,-89.9782,0.0,5.935,134.0,,'11111222,11111222,99999999' 
WAVCIS,ioos:station:WAVCIS:CSI09:1,2011-11-08T23:00:00Z,29.1015,-89.9782,0.0,5.788,128.0,,'11111222,11111222,99999999' 
WAVCIS,ioos:station:WAVCIS:CSI09:1,2011-11-09T00:00:00Z,29.1015,-89.9782,0.0,5.555,110.0,,'11111222,11111222,99999999' 
WAVCIS,ioos:station:WAVCIS:CSI09:1,2011-11-09T01:00:00Z,29.1015,-89.9782,0.0,7.02,122.0,,'11111222,11111222,99999999' 
WAVCIS,ioos:station:WAVCIS:CSI09:1,2011-11-09T02:00:00Z,29.1015,-89.9782,0.0,6.081,131.0,,'11111222,11111222,99999999' 
WAVCIS,ioos:station:WAVCIS:CSI09:1,2011-11-09T03:00:00Z,29.1015,-89.9782,0.0,7.82,138.0,,'11111222,11111222,99999999' 
WAVCIS,ioos:station:WAVCIS:CSI09:1,2011-11-09T04:00:00Z,29.1015,-89.9782,0.0,8.83,139.0,,'11111222,11111222,99999999' 
WAVCIS,ioos:station:WAVCIS:CSI09:1,2011-11-09T05:00:00Z,29.1015,-89.9782,0.0,8.4,147.0,,'11111222,11111222,99999999' 
WAVCIS,ioos:station:WAVCIS:CSI09:1,2011-11-09T06:00:00Z,29.1015,-89.9782,0.0,7.81,148.0,,'11111222,11111222,99999999' 
WAVCIS,ioos:station:WAVCIS:CSI09:1,2011-11-09T07:00:00Z,29.1015,-89.9782,0.0,7.7,152.0,,'11111222,11111222,99999999' 
WAVCIS,ioos:station:WAVCIS:CSI09:1,2011-11-09T08:00:00Z,29.1015,-89.9782,0.0,5.441,171.0,,'11111222,11111222,99999999' 